Regional Weather Roundup
Issued by NWS

Home | Current Version | Previous Version | Text Only | Print | Product List | Glossary Off
Versions: 1 2 3 4 5 6 7 8 9 10 11 12 13 14 15 16 17 18 19 20 21 22 23 24 25 26 27 28 29 30 31 32 33 34 35 36 37 38 39 40 41 42 43 44 45 46 47 48 49 50

000
ASUS45 KSLC 300810
RWRUT

UTAH REGIONAL WEATHER ROUNDUP
NATIONAL WEATHER SERVICE SALT LAKE CITY UT
200 AM MDT WED JUL 30 2014

UTZ001>011-023>025-300900-

NORTHERN UTAH

CITY           SKY/WX    TMP DP  RH WIND       PRES   REMARKS
HILL AFB       CLOUDY    64  62  93 E3        30.19F
LOGAN          RAIN      63  61  93 W5        30.22S FOG
OGDEN          LGT RAIN  65  61  87 CALM      30.17F
PROVO AIRPORT  MOCLDY    64  57  77 E5        30.20F
SALT LAKE CITY CLOUDY    68  61  78 SE6       30.16S
VERNAL         MOCLDY    62  58  86 CALM      30.23F
WENDOVER       PTCLDY    70  57  64 NW3       30.20R
HEBER CITY     DRIZZLE   59  57  94 CALM      30.26S
WEST JORDAN    CLOUDY    70  66  88 SE6       30.19S

$$

UTZ012>022-026-027-300900-

SOUTHERN UTAH

CITY           SKY/WX    TMP DP  RH WIND       PRES   REMARKS
BRYCE CANYON   MOCLDY    52  50  93 W3        30.37S
CEDAR CITY     MOCLDY    62  59  90 NE6       30.24R
MILFORD        CLEAR     63  57  81 W5        30.21R
MOAB/CYNLANDS  CLEAR     64  60  87 SE6       30.15S
PRICE          CLOUDY    62  56  80 CALM      30.26R
ST GEORGE      CLOUDY    84  55  37 N6        30.03S
KANAB          MOCLDY    70  54  56 NW8       30.21F

$$

REGIONAL REPORTS     COLORADO/ARIZONA

CITY           SKY/WX    TMP DP  RH WIND       PRES   REMARKS
CRAIG, CO      LGT RAIN  54  32  43 W5        30.28F
GRAND JUNCTION MOCLDY    61  58  90 CALM      30.19F
RIFLE          CLOUDY    60  57  89 W3        30.25F
MONTROSE       PTCLDY    60  56  86 E3        30.27F
CORTEZ         MOCLDY    62  57  83 CALM      30.24S
PAGE, AZ       PTCLDY    78  52  40 CALM      30.12F
GRAND CANYON   CLEAR     55  49  80 CALM      30.31F
KINGMAN        CLEAR     78  50  37 S6        30.06S
FLAGSTAFF      CLEAR     63  47  55 NW3       30.35S

$$

REGIONAL REPORTS    NEVADA/IDAHO/WYOMING

CITY           SKY/WX    TMP DP  RH WIND       PRES   REMARKS
LAS VEGAS, NV  PTCLDY    89  55  31 SW6       29.91S
ELY            PTCLDY    54  54 100 CALM      30.31S
ELKO           MOCLDY    66  48  52 NE7       30.26F
POCATELLO, ID  CLEAR     59  56  89 W3        30.21S
BURLEY         CLOUDY    63  54  72 SW3       30.19S
EVANSTON, WY   CLOUDY    55  53  93 E13       30.34S
ROCK SPRINGS   CLOUDY    57  52  83 NE13      30.35S

$$



USA.gov is the U.S. government's official web portal to all federal, state and local government web resources and services.